Location: Alphen
(52.1351°N, 4.6549°E)
Time: 02:01:25
(UTC+00:00)

Meteor 1-11 - Pass Details

Date: 27 January 2021
Orbit: 840 x 887 km, 81.2° (Epoch: 27 February)

Event Time Altitude Azimuth Distance (km) Brightness Sun altitude
Rises 05:35:49 0° 344° (NNW) 3,413 7.1 -17.2°
Reaches altitude 10° 05:38:18 10° 340° (NNW) 2,472 6.3 -16.8°
Maximum altitude 05:43:42 53° 265° (W) 1,028 4.3 -16.0°
Drops below altitude 10° 05:49:06 10° 189° (S) 2,458 6.6 -15.2°
Sets 05:51:33 0° 185° (S) 3,392 7.4 -14.8°
